Terug naar catalogus

STARLINK-5897

ActiefCommunicatieVLEO
NORAD 55931·PAYLOAD·🇺🇸 United States

Gelanceerd Mar 17, 2023 vanaf Vandenberg Space Force Base

Loading…

Volgende Passages (komende 24 uur)

TLE

VersSource: CelesTrak SupGP

Epoch: Sep 15, 2026, 02:31 UTC

1 55931C 23037T   26258.10534722 -.00006344  00000+0 -53165-3 0  2584
2 55931  70.0024 186.6941 0002942 271.3968 108.5307 14.98332361    11

Volg STARLINK-5897 in realtime met AllMySat

Download on the App Store